This is the latest recevied weather packets stored in our database for station/object N4ZIQ. If no packets are shown the sender has not sent any weather packets the latest 10 day(s).
| Time | Temp. | Humidity | Pressure | Rain* | Wind** | Luminosity | Snow |
|---|---|---|---|---|---|---|---|
| 1777756553 | 21.11° C | 91% | 1010.8 hPa | 0.76 mm | - | 81 W/m² | - |
| 1777756245 | 21.11° C | 90% | 1010.7 hPa | 0.76 mm | - | 113 W/m² | - |
| 1777755945 | 21.11° C | 89% | 1011.1 hPa | 0.76 mm | - | 104 W/m² | - |
| 1777755678 | 21.11° C | 88% | 1011.1 hPa | 0.76 mm | - | 81 W/m² | - |
| 1777755344 | 21.11° C | 87% | 1011.5 hPa | 0.76 mm | - | 46 W/m² | - |
| 1777755044 | 21.67° C | 85% | 1011.1 hPa | 0.51 mm | - | 30 W/m² | - |
| 1777754754 | 21.67° C | 83% | 1011.6 hPa | 0.25 mm | - | 18 W/m² | - |
| 1777754444 | 22.22° C | 81% | 1011.6 hPa | 0 mm | - | 21 W/m² | - |
| 1777754144 | 22.78° C | 79% | 1011.4 hPa | 0 mm | - | 26 W/m² | - |
| 1777753874 | 23.89° C | 75% | 1012.1 hPa | 0 mm | - | 9 W/m² | - |
| 1777753545 | 26.11° C | 71% | 1012 hPa | 0 mm | - | 9 W/m² | - |
| 1777753246 | 27.22° C | 67% | 1011.8 hPa | 0 mm | - | 7 W/m² | - |
| 1777752951 | 28.33° C | 71% | 1011.1 hPa | 0 mm | - | 23 W/m² | - |
| 1777752645 | 28.33° C | 70% | 1010.9 hPa | 0 mm | - | 84 W/m² | - |
| 1777752345 | 28.33° C | 70% | 1010.8 hPa | 0 mm | - | 97 W/m² | - |
| 1777752073 | 28.33° C | 69% | 1010.9 hPa | 0 mm | - | 104 W/m² | - |
| 1777751745 | 28.89° C | 69% | 1010.8 hPa | 0 mm | - | 113 W/m² | - |
| 1777751444 | 28.89° C | 69% | 1010.8 hPa | 0 mm | - | 130 W/m² | - |
| 1777751153 | 28.89° C | 68% | 1010.7 hPa | 0 mm | - | 156 W/m² | - |
| 1777750844 | 28.89° C | 68% | 1010.6 hPa | 0 mm | - | 149 W/m² | - |
| 1777750545 | 28.89° C | 67% | 1010.6 hPa | 0 mm | - | 141 W/m² | - |
| 1777750251 | 28.89° C | 68% | 1010.7 hPa | 0 mm | - | 151 W/m² | - |
| 1777749946 | 28.89° C | 69% | 1010.7 hPa | 0 mm | - | 134 W/m² | - |
| 1777749644 | 28.89° C | 67% | 1010.6 hPa | 0 mm | - | 116 W/m² | - |
| 1777749363 | 28.89° C | 69% | 1010.7 hPa | 0 mm | - | 114 W/m² | - |
* Rain latest hour (hover to see other rain measurements)
** Current wind speed in m/s (hover to see current wind gust speed)